This demonstration page uses our WeatherBlox Daily Observations layout. Learn more.

Left ArrowRight Arrow

39.95238, -75.16362

Hourly Observations for June 12, 2022

Temp ( °F °C ) Dew Point ( °F °C ) Humidity (%) Winds ( mph kmh ) Pressure ( in mb ) Visibility ( mi km ) Precip ( " mm )
12:54 am 00:54 Mostly Cloudy 67 19.4 59 15 76 76 Calm 29.97 1015 10 16 0.00 0.00
1:54 am 01:54 Mostly Cloudy 67 19.4 60 15.6 79 79 Calm 29.98 1015 10 16 0.00 0.00
2:54 am 02:54 Mostly Cloudy 67 19.4 61 16.1 81 81 Calm 29.96 1015 10 16 0.00 0.00
3:54 am 03:54 Mostly Cloudy 67 19.4 60 15.6 79 79 E 3 6 29.95 1014 10 16 0.00 0.00
4:54 am 04:54 Mostly Cloudy 67 19.4 60 15.6 79 79 Calm 29.95 1014 10 16 0.00 0.00
5:12 am 05:12 Mostly Cloudy with Light Rain 67 19.4 60 15.6 79 79 Calm 29.96 1015 10 16 0.00 0.00
5:22 am 05:22 Cloudy with Light Rain 67 19.4 60 15.6 79 79 Calm 29.97 1015 6 10 0.00 0.00
5:25 am 05:25 Cloudy with Rain 67 19.4 60 15.6 79 79 Calm 29.96 1015 3 5 0.01 0.25
5:27 am 05:27 Cloudy with Heavy Rain 66 18.9 61 16.1 84 84 SE 3 6 29.97 1015 3 4 0.02 0.51
5:32 am 05:32 Cloudy with Light Rain 65 18.3 61 16.1 87 87 NW 5 7 29.97 1015 5 8 0.08 2.03
5:40 am 05:40 Cloudy with Thunderstorms 66 18.9 61 16.1 84 84 ESE 3 6 29.96 1015 5 8 0.09 2.29
5:43 am 05:43 Cloudy with Thunderstorms 66 18.9 61 16.1 84 84 SE 3 6 29.97 1015 7 11 0.09 2.29
5:48 am 05:48 Cloudy with Strong Thunderstorms 66 19 61 16 83 83 Calm 29.96 1015 2 3 0.09 2.29
5:54 am 05:54 Cloudy with Strong Thunderstorms 65 18.3 62 16.7 90 90 S 5 7 29.97 1015 2 3 0.18 4.57
5:58 am 05:58 Cloudy with Thunderstorms 65 18.3 62 16.7 90 90 SE 6 9 29.97 1015 3 5 0.03 0.76
6:08 am 06:08 Cloudy with Thunderstorms 65 18.3 62 16.7 90 90 Calm 29.97 1015 7 11 0.06 1.52
6:48 am 06:48 Cloudy 64 18 63 17 94 94 NE 6 9 29.96 1015 7 11 0.18 4.57
6:54 am 06:54 Cloudy 65 18.3 63 17.2 93 93 ENE 5 7 29.97 1015 8 13 0.18 4.57
6:58 am 06:58 Cloudy with Thunderstorms 66 18.9 63 17.2 90 90 Calm 29.98 1015 4 6 0.00 0.00
7:16 am 07:16 Cloudy with Thunderstorms 65 18.3 63 17.2 93 93 ENE 7 11 29.97 1015 7 11 0.12 3.05
7:22 am 07:22 Cloudy 65 18.3 63 17.2 93 93 E 8 13 29.97 1015 7 11 0.12 3.05
7:35 am 07:35 Cloudy 66 18.9 63 17.2 90 90 E 8 13 29.97 1015 8 13 0.12 3.05
7:45 am 07:45 Cloudy with Light Rain 66 18.9 63 17.2 90 90 ENE 6 9 29.98 1015 4 6 0.12 3.05
7:48 am 07:48 Cloudy with Light Rain 66 19 63 17 88 88 NE 6 9 29.97 1015 2 3 0.12 3.05
7:54 am 07:54 Cloudy with Heavy Rain 66 18.9 62 16.7 87 87 ENE 5 7 29.98 1015 2 3 0.15 3.81
8:04 am 08:04 Cloudy with Heavy Rain 66 18.9 63 17.2 90 90 N 10 17 29.99 1016 2 3 0.10 2.54
8:13 am 08:13 Cloudy with Light Rain 65 18.3 63 17.2 93 93 ENE 7 11 29.98 1015 3 5 0.16 4.06
8:17 am 08:17 Cloudy with Light Rain 65 18.3 63 17.2 93 93 ENE 8 13 29.97 1015 7 11 0.16 4.06
8:54 am 08:54 Cloudy with Light Rain 66 18.9 63 17.2 90 90 ESE 9 15 29.97 1015 10 16 0.16 4.06
9:54 am 09:54 Cloudy with Light Rain 67 19.4 63 17.2 87 87 E 9 15 29.97 1015 10 16 0.03 0.76
10:43 am 10:43 Cloudy with Light Rain 67 19.4 64 17.8 91 91 E 9 15 29.97 1015 10 16 0.01 0.25
10:54 am 10:54 Cloudy with Light Rain 67 19.4 63 17.2 87 87 E 12 19 29.97 1015 10 16 0.01 0.25
11:54 am 11:54 Cloudy 69 20.6 65 18.3 87 87 SE 7 11 29.99 1016 10 16 0.00 0.00
12:22 pm 12:22 Cloudy 71 21.7 66 18.9 84 84 SE 8 13 29.98 1015 10 16 0.00 0.00
12:50 pm 12:50 Cloudy 73 23 66 19 78 78 ESE 6 9 29.96 1014 10 16 0.00 0.00
12:54 pm 12:54 Mostly Cloudy 74 23.3 67 19.4 79 79 ESE 6 9 29.96 1015 10 16 0.00 0.00
1:54 pm 13:54 Mostly Cloudy 76 24.4 67 19.4 74 74 Calm 29.93 1014 10 16 0.00 0.00
2:54 pm 14:54 Mostly Cloudy 79 26.1 65 18.3 62 62 SSW 7 11 29.91 1013 10 16 0.00 0.00
3:54 pm 15:54 Mostly Cloudy 80 26.7 64 17.8 58 58 SSW 10 17 29.90 1013 10 16 0.00 0.00
4:54 pm 16:54 Mostly Cloudy 80 26.7 65 18.3 60 60 SSW 10 17 29.90 1013 10 16 0.00 0.00
5:54 pm 17:54 Mostly Cloudy 80 26.7 65 18.3 60 60 S 12 19 29.89 1012 10 16 0.00 0.00
6:54 pm 18:54 Mostly Cloudy 78 25.6 66 18.9 67 67 S 9 15 29.90 1013 10 16 0.00 0.00
7:54 pm 19:54 Mostly Cloudy 77 25 66 18.9 69 69 S 8 13 29.90 1013 10 16 0.00 0.00
8:54 pm 20:54 Mostly Cloudy 76 24.4 66 18.9 72 72 S 8 13 29.90 1013 10 16 0.00 0.00
9:54 pm 21:54 Mostly Cloudy 74 23.3 66 18.9 76 76 S 8 13 29.89 1012 10 16 0.00 0.00
10:54 pm 22:54 Mostly Cloudy 73 22.8 66 18.9 79 79 S 8 13 29.91 1013 10 16 0.00 0.00
11:54 pm 23:54 Cloudy 72 22.2 66 18.9 82 82 Calm 29.92 1013 10 16 0.00 0.00

Powered by AerisWeather